{"data":{"norad_id":68454,"epoch":"2026-09-20T03:32:50.423712Z","epoch_age_seconds":99409,"freshness":"FRESH","line1":"1 68454U 26067AQ  26263.14780583  .00003824  00000+0  18721-3 0  9991","line2":"2 68454  97.4673 220.2801 0007213  92.5077 267.6983 15.18756828 26340","mean_motion":15.18756828,"eccentricity":0.0007213,"inclination_deg":97.4673,"raan_deg":220.2801,"arg_perigee_deg":92.5077,"mean_anomaly_deg":267.6983,"bstar":0.00018721,"rev_number":2634,"period_min":94.814388548053,"perigee_km":504.62854638594,"apogee_km":514.56479097638,"semimajor_km":6887.7336686812,"source":"CELESTRAK","updated_at":"2026-09-20T09:00:24.209530Z"}}